Helicity
141 110 87 87 72 63 59 59 61 55 50 44 44 47 51 59 59 68 73 75 78 82 74 74 97 97 19 51 15 30 36 23 19 34 50 60 79 63 74 59 51 83 44 22 21 27 35
97 130 119 94 87 75 68 57 58 59 57 49 42 43 50 56 68 66 70 74 81 76 74 57 67 61 24 61 36 59 50 35 35 59 81 91 79 69 68 72 94 68 37 17 15 40 29
-1 146 139 133 82 71 75 79 65 59 53 48 43 42 50 55 60 71 75 79 84 72 75 47 36 15 45 36 77 67 56 56 60 69 109 89 81 96 71 72 75 45 53 75 66 66 61
73 146 70 66 82 98 93 79 76 58 55 53 47 39 44 57 64 67 75 81 90 68 54 26 28 36 42 56 64 61 94 64 57 52 73 70 65 73 75 53 76 95 99 128 69 127 37
96 127 122 66 125 153 193 115 59 53 40 36 40 34 50 59 72 74 89 96 88 42 28 46 69 75 50 81 81 58 80 67 55 31 57 52 69 84 85 98 135 175 170 137 148 73 86
88 100 112 89 157 124 139 137 90 68 53 36 27 31 53 66 70 69 67 77 26 29 36 36 81 106 72 114 83 49 38 46 64 76 95 92 93 96 91 124 177 139 120 102 122 86 91
117 138 110 95 150 110 139 96 101 74 82 55 52 42 76 85 71 49 27 -7 65 72 94 90 88 83 52 67 67 55 62 83 83 104 106 109 86 53 78 114 114 86 70 84 53 -14 12
127 137 129 144 155 133 134 85 131 69 93 34 42 65 79 68 23 -25 1 10 7 16 49 58 61 66 -1 81 76 49 79 90 100 96 126 96 42 113 136 140 152 88 83 70 -3 14 42
46 125 155 128 154 113 93 84 90 57 86 54 58 93 87 41 -33 -32 32 28 26 23 20 42 90 86 75 167 76 12 99 100 102 115 120 79 54 118 127 131 136 95 73 43 21 16 32
100 85 137 141 139 114 123 119 141 125 116 60 96 107 51 -12 26 78 72 46 21 13 79 96 122 80 72 122 158 62 101 117 103 66 80 68 39 65 93 84 98 73 66 55 42 51 49
142 136 97 167 183 144 163 170 149 135 128 108 141 109 89 171 85 103 68 39 24 3 99 40 48 8 23 62 84 105 87 136 77 75 111 43 41 51 91 71 88 34 45 57 60 63 41
156 172 134 123 153 161 185 157 144 108 126 162 138 70 75 45 32 58 59 43 41 83 106 83 39 54 54 26 51 55 65 89 60 68 60 48 42 50 25 52 78 85 59 47 92 74 57
145 165 148 143 169 163 147 147 144 164 167 132 89 59 49 41 30 52 72 90 100 60 55 106 110 89 59 53 50 45 61 69 71 99 96 77 61 50 98 75 94 93 60 55 53 70 51
124 138 206 238 179 112 124 156 152 177 191 143 108 102 62 42 47 69 94 152 67 54 60 65 44 103 63 88 70 58 83 94 57 95 123 110 83 61 22 49 41 26 40 54 75 65 59
125 124 154 183 197 131 151 183 190 246 219 221 231 168 92 69 64 100 156 153 77 65 80 98 60 43 99 117 69 64 70 97 80 54 79 90 65 36 47 35 42 37 50 42 77 84 101
141 132 136 142 110 114 110 171 209 247 275 256 311 219 131 105 98 185 187 132 89 62 83 106 104 62 74 101 103 86 78 92 74 71 43 39 58 46 37 63 93 55 65 77 101 67 68
153 143 123 139 122 98 164 137 203 304 359 305 334 219 171 102 179 225 200 114 63 64 65 67 110 73 89 87 115 127 126 95 105 95 75 62 55 48 67 73 52 80 88 127 143 160 133
122 134 124 158 156 162 190 117 152 219 208 406 414 300 209 222 250 245 218 129 68 52 73 64 78 59 93 107 77 98 108 98 117 87 61 70 68 94 93 118 110 107 99 115 134 110 171
139 142 138 151 163 175 198 217 192 190 202 364 283 372 225 287 228 263 199 128 81 64 86 21 71 38 51 76 61 100 105 138 159 161 104 73 102 139 165 136 175 137 146 136 143 174 155
297 174 165 152 165 170 191 185 222 187 168 403 303 242 203 178 213 215 180 110 68 67 94 99 50 53 38 64 99 94 120 167 196 180 194 133 133 115 122 111 132 139 167 174 181 254 219
278 167 179 186 168 181 185 187 161 146 119 212 280 150 196 170 210 260 197 97 100 114 112 100 84 75 113 85 97 98 159 188 203 206 182 144 139 159 169 171 162 103 85 146 233 211 207
138 338 163 187 176 190 204 197 169 109 199 400 291 305 330 250 177 111 191 167 105 107 128 127 92 77 81 85 68 30 102 120 119 143 158 183 162 179 165 155 139 116 62 149 119 135 104
102 210 182 170 169 217 223 206 161 179 285 371 381 419 283 241 216 177 180 184 128 127 117 77 89 106 87 57 62 61 81 59 92 88 86 153 170 149 108 135 147 148 147 118 120 90 89
107 193 147 185 190 203 239 198 201 190 334 332 395 355 382 322 314 215 212 195 166 134 124 99 78 104 88 73 99 95 96 72 99 71 121 123 144 171 151 147 175 156 145 93 80 57 95
120 188 126 180 181 204 233 206 227 180 287 314 329 315 303 311 252 258 246 229 181 151 126 121 101 85 108 161 159 159 165 168 148 71 101 117 162 155 146 130 101 -17 91 151 136 69 114
82 176 189 171 195 222 250 279 279 212 251 301 323 297 273 275 264 273 216 246 223 165 130 121 117 146 218 235 252 183 162 171 141 177 207 178 178 197 203 133 125 76 55 115 96 97 124
92 104 177 165 196 231 254 276 237 231 257 293 304 309 340 335 308 320 254 246 258 234 163 176 122 179 219 276 250 245 227 242 201 192 166 264 264 199 231 184 167 119 84 102 144 95 91
57 104 150 161 183 248 246 258 275 230 278 302 288 313 252 372 336 320 289 228 243 218 208 214 281 258 291 245 219 214 204 227 244 244 213 204 218 245 260 227 164 109 127 99 79 66 57
81 178 163 177 227 291 297 275 257 228 245 306 348 274 264 269 300 172 203 229 223 189 178 296 313 280 282 340 308 320 273 252 229 221 263 230 260 212 203 199 124 92 89 57 64 84 105
Wind_Speed
51 56 58 61 54 55 51 51 50 50 50 50 51 53 53 56 56 59 60 61 62 62 62 62 63 61 48 44 39 36 37 41 42 44 46 47 43 42 39 41 46 30 41 51 53 48 41
44 54 62 70 56 60 57 55 52 52 52 53 53 54 56 58 60 61 62 64 65 65 65 64 63 59 46 53 41 33 37 43 41 43 45 43 43 43 42 43 43 43 48 53 52 52 36
55 42 47 58 61 64 58 56 56 54 55 55 55 55 57 59 61 64 65 68 69 69 69 67 59 50 50 52 37 41 38 40 40 41 45 39 39 43 42 47 44 45 49 51 48 49 38
61 60 45 42 52 66 65 60 56 57 56 55 55 56 56 60 61 65 68 71 73 73 71 59 49 48 55 43 50 46 35 40 36 36 36 41 35 39 38 40 45 42 37 40 45 58 42
63 59 51 47 47 57 52 64 65 59 57 56 55 55 55 57 61 64 69 72 74 65 53 45 46 46 59 52 39 37 24 33 33 31 37 37 36 36 37 38 36 42 42 43 44 48 43
65 58 53 48 49 56 60 56 68 62 61 56 55 53 52 53 58 61 67 70 60 46 39 39 41 49 45 40 36 33 28 27 32 32 37 35 35 37 36 35 40 42 40 41 46 48 48
82 64 58 52 51 52 42 35 65 60 58 54 56 49 51 53 56 57 59 51 51 51 47 50 47 45 42 39 38 31 31 28 29 34 37 38 37 31 26 32 37 38 33 43 45 41 45
81 73 67 62 53 41 39 46 77 74 57 60 52 51 51 52 52 55 46 45 45 50 70 63 60 58 52 44 45 34 32 36 33 36 33 36 33 24 36 35 38 31 36 42 38 41 37
84 81 73 68 62 42 49 42 41 59 38 45 40 55 54 53 55 51 45 43 43 45 59 62 49 54 52 36 47 46 40 35 38 34 28 29 28 40 45 46 39 34 37 40 42 41 35
85 78 79 71 70 63 59 49 44 43 35 26 29 45 48 61 57 49 42 42 44 40 55 53 45 42 36 31 46 40 33 34 31 27 26 34 39 32 36 35 34 39 33 36 38 39 37
91 84 69 76 73 67 64 58 57 37 31 28 30 43 49 47 44 41 37 42 40 38 45 30 28 27 24 21 31 32 22 19 24 24 27 29 28 30 31 34 36 37 30 36 34 34 32
94 90 83 74 69 71 69 59 48 39 31 27 27 37 40 45 42 46 46 42 31 31 41 32 29 27 22 30 29 24 22 20 23 24 31 33 36 35 35 36 29 32 36 43 37 28 31
90 87 85 79 73 66 70 63 57 46 38 30 22 38 49 42 40 42 41 31 27 32 35 33 33 33 33 32 29 22 21 21 22 25 30 37 34 36 24 22 29 28 35 40 33 29 28
91 86 85 83 74 69 68 59 58 52 41 35 28 32 46 45 39 35 32 29 36 34 35 37 35 42 34 26 28 20 22 25 27 29 32 33 33 34 25 5 13 23 22 26 32 29 29
96 88 85 84 82 73 70 68 62 53 43 36 35 39 42 42 34 26 32 36 36 40 37 40 39 37 34 27 32 25 24 27 29 21 24 26 26 28 27 21 14 19 23 25 27 32 33
96 92 85 83 80 72 67 63 61 57 46 38 47 49 50 36 22 35 41 45 42 43 40 38 37 33 31 32 30 30 26 34 28 26 21 24 26 25 24 23 28 21 20 24 27 29 30
97 94 88 81 78 71 63 55 52 54 47 41 49 55 45 29 28 47 54 48 54 52 45 45 43 40 36 31 33 35 34 30 31 33 26 25 25 23 19 25 19 23 21 26 24 23 31
97 94 88 84 78 74 66 57 51 48 50 44 50 63 42 33 54 59 58 55 47 49 46 49 49 47 44 40 38 37 36 32 38 30 27 29 26 26 27 29 30 24 23 22 26 31 30
95 94 90 86 81 77 70 67 58 53 50 47 46 46 41 44 71 67 56 56 58 51 47 44 50 48 43 45 42 41 36 35 33 30 26 27 33 33 39 35 30 26 28 28 28 31 25
88 94 90 87 83 80 76 69 65 62 54 47 53 63 53 61 62 68 64 62 61 53 55 42 45 45 42 49 47 41 37 39 34 31 33 28 32 36 31 36 30 29 30 31 33 37 33
88 92 90 86 82 79 75 74 70 68 61 56 64 70 63 74 76 69 64 62 62 64 53 40 45 44 40 46 43 45 43 37 37 36 35 34 39 41 39 38 39 34 30 34 33 27 31
83 89 90 86 83 79 76 74 71 69 70 67 72 68 65 70 65 66 68 70 61 59 50 50 47 39 36 41 40 40 39 40 41 37 37 38 41 41 50 47 42 40 33 38 30 29 28
93 89 89 89 85 81 77 72 72 71 66 69 63 60 63 70 66 71 74 66 64 59 68 54 47 41 41 48 42 44 39 40 38 38 35 39 40 44 48 50 56 56 41 33 34 32 28
97 96 91 90 85 82 78 74 72 74 68 59 57 57 68 79 75 78 66 65 62 59 67 61 53 51 48 37 35 42 46 46 45 41 33 35 34 37 45 49 53 48 39 35 30 28 28
105 104 92 89 87 81 78 74 73 70 66 56 54 57 66 74 69 71 68 68 66 60 65 65 62 56 39 42 49 50 50 48 48 44 39 34 32 40 44 43 59 64 45 46 45 36 27
106 110 96 91 86 81 76 74 70 68 62 52 51 48 55 63 71 63 68 65 69 74 75 64 58 50 45 50 51 55 54 50 49 46 44 37 38 39 39 50 53 41 32 41 44 51 31
106 110 100 92 86 79 76 73 68 65 59 50 49 45 48 56 53 56 62 65 60 62 67 67 61 58 51 59 64 62 62 50 56 51 46 44 48 49 49 50 56 40 47 51 49 48 27
111 115 101 94 83 77 75 72 68 65 56 46 46 51 48 53 47 46 48 51 51 57 67 56 53 58 57 64 69 65 67 61 65 55 49 47 50 53 50 55 61 43 35 34 37 41 27
102 106 101 91 86 80 74 71 67 65 58 44 49 36 44 43 46 36 34 33 36 43 48 47 57 49 50 56 61 55 69 60 64 77 53 69 55 55 45 47 41 35 34 33 42 43 31
Wind_Direction
252 249 251 253 257 258 262 266 269 273 276 280 283 285 289 290 293 294 297 298 300 301 303 305 307 310 321 318 323 334 341 341 342 342 341 341 344 343 341 337 332 337 332 326 324 326 327
251 249 249 249 255 255 258 263 268 271 275 278 282 285 287 289 290 293 295 296 297 298 300 302 305 310 318 307 322 335 337 336 339 341 338 343 340 339 333 331 331 329 325 324 328 324 327
247 247 244 248 250 253 257 260 265 270 273 277 281 285 287 289 291 293 294 294 294 296 297 300 307 315 310 306 324 325 330 332 336 338 334 339 341 338 336 329 332 330 327 328 343 334 335
246 245 240 221 244 252 256 260 263 267 271 275 279 284 288 289 292 293 294 293 293 295 296 303 310 311 301 312 312 314 325 326 330 336 339 342 345 338 337 335 333 335 343 336 340 343 346
242 241 238 237 235 250 257 258 259 263 268 273 279 283 287 290 292 295 295 294 294 301 305 308 308 306 300 309 316 324 337 333 338 337 336 338 346 344 340 337 337 340 333 335 334 347 348
241 237 235 234 242 247 258 263 256 258 264 272 278 281 285 289 292 297 297 296 303 310 315 313 308 302 303 308 321 326 336 339 343 339 335 337 340 334 336 339 329 331 335 335 333 335 339
244 238 233 231 239 244 250 249 250 253 262 272 273 280 281 287 293 300 307 311 302 296 301 293 298 298 305 311 316 321 330 334 335 336 326 331 327 330 343 339 336 334 336 331 330 339 334
247 236 239 237 239 226 239 246 241 241 258 261 270 273 278 285 292 301 311 307 305 303 290 291 289 288 290 300 301 300 317 316 320 315 327 323 324 333 329 334 334 334 332 333 344 343 343
244 241 238 238 238 227 241 235 241 246 258 264 274 265 271 278 286 292 297 300 310 313 297 293 294 291 289 282 281 288 296 305 308 312 318 318 324 317 320 322 330 329 328 333 334 340 348
241 245 239 237 237 238 238 240 243 247 256 257 274 278 281 280 286 281 286 298 307 315 299 296 296 297 299 296 290 291 281 290 302 304 309 313 313 316 321 326 334 326 338 339 338 336 328
238 238 241 239 237 236 239 242 244 240 243 249 270 279 282 281 283 267 282 291 302 296 295 318 317 316 315 300 301 304 303 285 291 303 316 316 323 324 321 322 330 327 344 341 341 337 336
238 238 239 240 237 237 239 238 235 233 233 246 267 277 265 253 253 244 252 267 289 297 286 303 306 302 311 292 302 318 320 320 315 307 307 307 311 312 310 319 334 338 336 337 337 338 329
236 236 235 238 237 237 236 233 234 233 233 245 255 252 243 251 253 253 251 265 287 286 295 296 297 300 294 293 301 307 315 318 316 315 314 315 321 325 319 305 326 338 338 335 343 350 346
234 234 234 235 238 237 234 232 227 226 228 234 245 255 253 253 264 264 261 268 274 291 289 290 300 290 291 301 303 306 315 309 309 309 313 319 326 338 3 348 348 350 353 347 343 347 349
232 233 233 234 235 237 235 232 228 223 218 225 237 250 257 257 262 271 259 268 273 277 288 284 285 290 291 298 290 295 299 304 300 319 320 329 337 1 10 18 29 3 349 349 344 340 337
230 230 232 232 232 232 232 230 226 219 215 217 236 244 252 252 265 255 260 268 271 272 281 287 285 294 286 287 285 289 294 292 301 315 329 335 335 351 5 5 347 359 9 353 346 343 337
229 228 229 229 228 227 225 222 220 213 206 216 238 243 251 237 255 252 258 267 266 271 278 279 276 276 281 287 287 283 287 299 301 298 321 324 332 341 1 345 348 347 348 349 351 348 335
227 227 226 226 225 223 221 216 208 205 206 226 237 238 245 229 246 254 259 261 275 278 276 273 270 268 271 279 283 286 284 294 295 305 312 319 326 320 327 340 332 339 341 343 330 330 331
226 225 225 224 223 220 218 216 211 204 208 220 223 241 243 245 245 251 262 266 268 275 273 278 263 263 270 274 282 281 289 297 306 307 313 316 313 313 314 321 329 327 329 329 333 331 319
232 223 223 222 221 220 217 214 213 207 208 227 235 237 246 244 254 253 257 263 263 268 265 273 271 263 267 275 274 282 286 293 301 306 309 314 311 309 308 317 328 320 322 326 323 318 318
234 221 221 220 219 217 215 215 214 212 214 232 239 244 245 246 247 255 255 263 257 257 261 263 266 260 264 272 276 275 285 293 295 300 303 303 301 307 311 314 317 318 318 318 313 312 308
230 227 219 218 217 215 215 214 214 213 221 234 238 243 248 253 249 247 250 251 253 254 260 257 263 261 263 268 276 286 289 288 288 294 296 300 300 306 302 307 313 310 307 306 293 291 278
231 231 218 218 217 216 215 214 213 212 220 238 242 246 248 248 246 244 245 251 251 253 253 261 257 259 265 271 281 286 294 297 296 290 289 294 297 304 301 307 308 310 310 309 314 315 302
234 232 220 216 216 215 214 213 214 214 222 237 240 244 245 246 243 245 246 247 251 251 253 255 258 258 267 288 289 291 289 287 292 292 296 298 299 303 306 311 306 318 326 325 320 317 318
232 229 219 215 214 212 211 213 212 212 221 234 237 242 243 245 245 246 246 248 251 254 255 256 259 264 266 277 279 280 284 286 286 285 289 292 295 299 302 306 310 311 319 320 319 321 330
232 227 215 214 211 209 209 210 209 210 217 233 235 242 248 241 246 250 248 249 250 251 254 259 262 268 263 266 268 271 274 279 284 286 283 285 290 286 301 305 310 326 338 338 338 317 325
230 222 213 209 207 205 204 207 203 204 213 227 237 237 246 245 254 250 249 249 254 254 258 254 259 259 260 256 262 267 270 276 275 280 284 276 281 278 287 294 303 312 311 321 313 321 346
223 216 210 207 203 201 200 201 200 199 206 223 239 240 242 248 256 256 258 255 257 258 253 256 255 257 255 254 258 266 270 269 272 278 282 278 281 281 285 290 295 316 323 317 326 328 328
218 208 205 204 203 200 197 195 192 194 202 217 234 245 229 254 251 262 265 272 271 271 262 259 254 262 259 256 262 270 270 273 273 273 279 273 274 283 281 292 305 313 317 321 324 324 320